Вернуться в каталог

PELICAN-11

АктивенНаукаSSO
NORAD 69871·PAYLOAD·🇺🇸 United States

Запущен Jul 7, 2026 с Vandenberg Space Force Base

Loading…

Ближайшие Пролёты (ближайшие 24 часа)

TLE

СвежийSource: CelesTrak SupGP

Эпоха: Sep 14, 2026, 20:44 UTC

1 69871C 26156C   26257.86442130  .00001496  00000+0  13841-3 0  2577
2 69871  97.7182 157.2092 0004156 356.9311  57.8895 14.94621669    18

Отслеживайте PELICAN-11 в реальном времени с AllMySat

Download on the App Store